Weather observations for the past three days for
Gulfport - Gulfport-Biloxi International Airport
Imperial (Metric)
Date Time (cdt) Wind (mph) Vis. (mi.) Weather Sky Cond. Temperature (ºF) Relative Humidity Wind Chill (°F) Heat Index (°F) Pressure Precipitation (in)
Air Dwpt 6 hour altimeter (in) sea level (mb) 1 hr 3 hr 6 hr
Max. Min.
16 09:53 SE 10 10.00 Mostly Cloudy SCT022 BKN032 86 78.1 77% 98 29.94 1013.9 0.01 0.01
16 08:53 SE 12 10.00 Partly Cloudy FEW019 SCT025 86 75.9 72% 96 29.95 1014.1
16 07:53 NE 6 10.00 A Few Clouds FEW024 84.9 77 77% 95 29.94 1013.7
16 06:53 NE 5 10.00 Partly Cloudy SCT070 SCT080 82 77 84 79 85% 90 29.93 1013.5 0.02 0.02
16 05:53 E 5 10.00 A Few Clouds FEW024 81 77 88% 88 29.92 1013.1
16 04:53 E 6 10.00 A Few Clouds FEW024 80.1 75.9 87% 85 29.91 1012.8
16 03:53 NE 3 10.00 A Few Clouds FEW022 81 75.9 85% 87 29.91 1012.7
16 02:53 Calm 10.00 Mostly Cloudy SCT021 BKN030 80.1 75.9 87% 85 29.91 1012.9
16 01:53 E 5 10.00 Fair CLR 84 75.9 77% 93 29.91 1012.8
16 00:53 SE 8 10.00 Fair CLR 84 75 91 84 74% 92 29.92 1013.0
15 23:53 SE 8 10.00 Fair CLR 84 77 80% 94 29.93 1013.3
15 22:53 SE 9 10.00 Fair CLR 84.9 78.1 80% 97 29.93 1013.3
15 21:53 SE 12 10.00 Fair CLR 86 73.9 67% 94 29.92 1013.1
15 20:53 E 6 10.00 Fair CLR 87.1 69.1 55% 91 29.91 1012.6
15 19:53 SE 8 10.00 Fair CLR 88 71.1 57% 94 29.9 1012.3
15 18:53 SE 10 10.00 Fair CLR 90 70 95 90 52% 95 29.89 1012.0
15 17:53 SE 10 10.00 Fair CLR 91.9 66.9 44% 95 29.89 1012.2
15 16:53 SE 12 10.00 Fair CLR 93.9 68 43% 98 29.9 1012.4
15 15:53 SE 15 10.00 Fair CLR 93 66.9 42% 97 29.92 1013.0
15 14:53 SE 17 10.00 Fair CLR 93 71.1 49% 100 29.93 1013.3
15 13:53 SE 15 10.00 Partly Cloudy SCT065 93.9 69.1 44% 99 29.94 1013.7
15 12:53 SE 14 10.00 A Few Clouds FEW050 93 73 95 80.1 52% 102 29.95 1014.0
15 11:53 E 6 10.00 A Few Clouds FEW060 93 66.9 42% 97 29.95 1014.1
15 10:53 E 3 10.00 Fair CLR 93 72 50% 101 29.95 1014.2
15 09:53 Calm 10.00 Fair CLR 91 72 54% 99 29.95 1014.2
15 08:53 NW 6 10.00 Fair CLR 86 73.9 67% 94 29.96 1014.4
15 07:53 N 5 10.00 Fair CLR 84 73.9 72% 91 29.95 1014.0
15 06:53 Calm 10.00 Fair CLR 80.1 73.9 81 77 82% 85 29.93 1013.5
15 05:53 Calm 10.00 Fair CLR 77 73 88% 78 29.92 1013.2
15 04:53 Calm 8.00 Fair CLR 77 73.9 90% 78 29.91 1012.7
15 03:53 Calm 10.00 Fair CLR 78.1 75 90% 81 29.9 1012.3
15 02:53 Calm 10.00 Fair CLR 79 75 88% 83 29.9 1012.5
15 01:53 Calm 10.00 Fair CLR 79 75 88% 83 29.92 1013.0
15 00:53 Calm 10.00 Fair CLR 81 75 89.1 81 82% 87 29.92 1013.2
14 23:53 Calm 10.00 Mostly Cloudy BKN065 BKN085 82.9 75.9 79% 91 29.93 1013.5
14 22:53 Calm 10.00 Mostly Cloudy BKN070 BKN090 82.9 75 77% 90 29.93 1013.3
14 21:53 Calm 10.00 A Few Clouds FEW075 FEW100 84 75.9 77% 93 29.92 1012.9
14 20:53 Calm 10.00 A Few Clouds FEW080 FEW095 84 75.9 77% 93 29.9 1012.6
14 19:53 S 6 10.00 Fair CLR 87.1 73.9 65% 95 29.89 1012.2
14 18:53 S 7 10.00 Fair CLR 89.1 73 96.1 89.1 59% 97 29.88 1011.9
14 17:53 S 9 10.00 Fair CLR 90 72 56% 97 29.88 1011.6
14 16:53 S 12 10.00 Fair CLR 91.9 72 52% 100 29.88 1011.7
14 15:53 S 10 10.00 Fair CLR 95 69.1 43% 101 29.88 1011.7
14 14:53 S 10 10.00 Fair CLR 95 66.9 40% 99 29.88 1011.9
14 13:53 E 5 10.00 Partly Cloudy SCT065 93.9 66 40% 97 29.9 1012.4
14 12:53 NE 5 10.00 Fair CLR 96.1 66.9 96.1 78.1 39% 100 29.91 1012.8
14 11:53 Vrbl 7 10.00 Fair CLR 93 66.9 42% 97 29.93 1013.3
14 10:53 N 8 10.00 Fair CLR 91.9 68 46% 96 29.94 1013.9
14 09:53 N 9 10.00 Fair CLR 89.1 68 50% 93 29.95 1014.0
14 08:53 N 9 10.00 Fair CLR 86 71.1 61% 92 29.96 1014.4
14 07:53 N 7 10.00 Fair CLR 82 73.9 77% 88 29.95 1014.0
14 05:53 N 5 9.00 Fair CLR 75 72 90% 74 29.93 1013.4
14 04:53 Calm 10.00 Fair CLR 75.9 72 88% 76 29.91 1012.9
14 03:53 Calm 10.00 Fair CLR 75.9 72 88% 76 29.91 1012.7
14 02:53 NW 5 10.00 Fair CLR 75.9 73 91% 76 29.91 1012.6
14 01:53 Calm 10.00 Fair CLR 75.9 73 91% 76 29.89 1012.2
14 00:53 Calm 10.00 Fair CLR 78.1 73.9 88 78.1 87% 81 29.89 1012.1
13 23:53 Calm 10.00 Fair CLR 79 73 82% 82 29.9 1012.4
13 22:53 Calm 10.00 A Few Clouds FEW060 81 73.9 79% 86 29.9 1012.4
13 21:53 Calm 8.00 Mostly Cloudy BKN060 82 73.9 77% 88 29.9 1012.5
13 20:53 Calm 10.00 Mostly Cloudy BKN060 BKN070 84.9 73 68% 92 29.9 1012.3
13 19:53 S 5 10.00 Partly Cloudy SCT065 87.1 73 63% 95 29.9 1012.3
13 18:53 S 5 10.00 Fair CLR 88 72 93 88 59% 95 29.89 1012.1
13 17:53 Vrbl 5 10.00 Fair CLR 89.1 72 57% 96 29.88 1011.8
13 16:53 S 7 10.00 Mostly Cloudy SCT048 SCT060 BKN070 90 72 56% 97 29.88 1011.7
13 15:53 Vrbl 6 10.00 A Few Clouds FEW048 91.9 71.1 51% 99 29.87 1011.5
13 14:53 SE 7 10.00 Partly Cloudy FEW046 SCT075 91.9 70 49% 98 29.89 1012.0
13 13:53 S 7 10.00 A Few Clouds FEW045 91 71.1 52% 98 29.91 1012.7
13 12:53 SE 7 10.00 Mostly Cloudy BKN047 BKN055 89.1 71.1 93 75.9 55% 95 29.93 1013.4
13 11:53 Calm 10.00 Fair CLR 90 69.1 50% 95 29.93 1013.6
13 10:53 Calm 10.00 Mostly Cloudy BKN060 88 70 55% 93 29.94 1013.8
Date Time (cdt) Wind (mph) Vis. (mi.) Weather Sky Cond. Air Dwpt Max. Min. Relative Humidity Wind Chill (°F) Heat Index (°F) altimeter (in) sea level (mb) 1 hr 3 hr 6 hr
6 hour
Temperature (ºF) Pressure Precipitation (in)